User: anonymous   Login
Location: Unspecified
(0.0000°N, 0.0000°E)
Time: 12:10:31
(UTC+00:00)
Language:

DSP F5R - Orbit

View from above orbital plane
View from above orbital plane
View from above satellite
View from above satellite

Ground track
Ground track

The orbit data is extracted from the following two-line orbital elements,

1 18583U 87097A   18257.17060879 0.00000000  00000-0  00000-0 0    00
2 18583  14.3567 358.7013 0021102 211.9277 147.9563  0.98383201    04
Epoch (UTC): 14 September 2018 04:05:40
Eccentricity: 0.0021102
inclination: 14.3567°
perigee height: 36234 km
apogee height: 36414 km
right ascension of ascending node: 358.7013°
argument of perigee: 211.9277°
revolutions per day: 0.98383201
mean anomaly at epoch: 147.9563°
orbit number at epoch: 0

The dashed part of the orbit path shows where the satellite is in the earth's shadow,  

DLR